Wise, VA

3:41 PM EST on November 19, 2017 (GMT -0500)
Lonesome Pine

Weather History for KLNP - January, 2014

Change the Weather History Date:

Monday, January 13, 2014

  Actual Average Record
Temperature  
Mean Temperature 44 °F -  
Max Temperature 48 °F 38 °F 66 °F (2005)
Min Temperature 39 °F 22 °F 3 °F (1997)
Degree Days  
Heating Degree Days 22    
Moisture  
Dew Point 35 °F    
Average Humidity 73    
Maximum Humidity 100    
Minimum Humidity 57    
Precipitation  
Precipitation 0.03 in - - ()
Sea Level Pressure  
Sea Level Pressure 29.95 in    
Wind  
Wind Speed 14 mph (SW)    
Max Wind Speed 25 mph    
Max Gust Speed 36 mph    
Visibility 10 miles    
Events Rain    
Averages and records for this station are not official NWS values.
T = Trace of Precipitation, MM = Missing Value Source: NWS Daily Summary

Daily Weather History Graph

Daily Weather History Graph

Search for Another Location

Airport or City:

Trip Planner

Search our weather history database for the weather conditions in past years. The results will help you decide how hot, cold, wet, or windy it might be!

Date:

Astronomy

Jan. 13, 2014 Rise Set
Actual Time 7:42 AM EST 5:35 PM EST
Civil Twilight 7:14 AM EST 6:03 PM EST
Nautical Twilight 6:42 AM EST 6:35 PM EST
Astronomical Twilight 6:11 AM EST 7:06 PM EST
Moon 3:48 PM EST (1/13) 5:31 AM EST (1/13)
Length of Visible Light 10h 49m
Length of Day
9h 52m
Waxing Gibbous, 95% of the Moon is Illuminated
Jan 13
Waxing Gibbous
Jan 15
Full
Jan 24
Last Quarter
Jan 30
New
Feb 6
First Quarter

Hourly Weather History & Observations

Time (EST) Temp. Windchill Dew Point Humidity Pressure Visibility Wind Dir Wind Speed Gust Speed Precip Events Conditions
12:15 AM 41.0 °F 34.7 °F 30.2 °F 65% 30.05 in 10.0 mi SW 10.4 mph - N/A   Clear
12:35 AM 39.2 °F 31.6 °F 30.2 °F 70% 30.05 in 10.0 mi SW 12.7 mph - N/A   Clear
12:55 AM 41.0 °F 33.9 °F 30.2 °F 65% 30.05 in 10.0 mi SW 12.7 mph - N/A   Clear
1:15 AM 41.0 °F 35.2 °F 30.2 °F 65% 30.04 in 10.0 mi SW 9.2 mph - N/A   Clear
1:35 AM 41.0 °F 35.2 °F 30.2 °F 65% 30.03 in 10.0 mi SSW 9.2 mph - N/A   Clear
1:55 AM 41.0 °F 34.3 °F 30.2 °F 65% 30.03 in 10.0 mi SW 11.5 mph - N/A   Clear
2:15 AM 42.8 °F 35.8 °F 30.2 °F 61% 30.03 in 10.0 mi SW 13.8 mph 18.4 mph N/A   Clear
2:35 AM 42.8 °F 36.6 °F 28.4 °F 57% 30.04 in 10.0 mi SW 11.5 mph - N/A   Clear
2:55 AM 41.0 °F 34.3 °F 28.4 °F 61% 30.04 in 10.0 mi SSW 11.5 mph - N/A   Clear
3:15 AM 42.8 °F 35.1 °F 28.4 °F 57% 30.03 in 10.0 mi SW 16.1 mph - N/A   Clear
3:35 AM 42.8 °F 35.4 °F 28.4 °F 57% 30.03 in 10.0 mi SSW 15.0 mph - N/A   Clear
3:55 AM 42.8 °F 36.2 °F 30.2 °F 61% 30.03 in 10.0 mi SW 12.7 mph - N/A   Clear
4:15 AM 42.8 °F 34.5 °F 30.2 °F 61% 30.02 in 10.0 mi SW 18.4 mph 23.0 mph N/A   Clear
4:35 AM 42.8 °F 36.2 °F 30.2 °F 61% 30.03 in 10.0 mi SW 12.7 mph 18.4 mph N/A   Clear
4:55 AM 42.8 °F 35.8 °F 30.2 °F 61% 30.03 in 10.0 mi SW 13.8 mph 20.7 mph N/A   Clear
5:15 AM 42.8 °F 33.8 °F 30.2 °F 61% 30.02 in 10.0 mi SW 21.9 mph 28.8 mph N/A   Clear
5:35 AM 44.6 °F 35.5 °F 30.2 °F 57% 30.01 in 10.0 mi SW 25.3 mph 35.7 mph N/A   Clear
5:55 AM 44.6 °F 36.6 °F 32.0 °F 61% 30.01 in 10.0 mi SW 19.6 mph 27.6 mph N/A   Clear
6:15 AM 44.6 °F 36.4 °F 32.0 °F 61% 30.02 in 10.0 mi SW 20.7 mph 29.9 mph N/A   Clear
6:35 AM 42.8 °F 34.0 °F 32.0 °F 66% 30.01 in 10.0 mi SW 20.7 mph 26.5 mph N/A   Clear
6:55 AM 44.6 °F 36.4 °F 32.0 °F 61% 30.00 in 10.0 mi SW 20.7 mph 31.1 mph N/A   Clear
7:15 AM 44.6 °F 38.8 °F 32.0 °F 61% 30.00 in 10.0 mi SW 11.5 mph 19.6 mph N/A   Clear
7:35 AM 44.6 °F 37.2 °F 32.0 °F 61% 29.99 in 10.0 mi SW 17.3 mph 21.9 mph N/A   Clear
7:55 AM 44.6 °F 39.7 °F 32.0 °F 61% 29.98 in 10.0 mi SW 9.2 mph 17.3 mph N/A   Clear
8:15 AM 44.6 °F 38.8 °F 32.0 °F 61% 29.99 in 10.0 mi WSW 11.5 mph - N/A   Clear
8:35 AM 44.6 °F 36.9 °F 32.0 °F 61% 30.00 in 10.0 mi WSW 18.4 mph 27.6 mph N/A   Clear
8:55 AM 46.4 °F 38.5 °F 32.0 °F 57% 30.02 in 10.0 mi WSW 21.9 mph 29.9 mph N/A   Clear
9:15 AM 46.4 °F 39.5 °F 32.0 °F 57% 30.00 in 10.0 mi SW 17.3 mph 23.0 mph N/A   Clear
9:35 AM 46.4 °F 38.5 °F 32.0 °F 57% 30.02 in 10.0 mi SW 21.9 mph 28.8 mph N/A   Clear
9:55 AM 46.4 °F 39.2 °F 32.0 °F 57% 30.01 in 10.0 mi SW 18.4 mph 28.8 mph N/A   Clear
10:15 AM 48.2 °F - 33.8 °F 58% 30.02 in 10.0 mi SW 21.9 mph 29.9 mph N/A   Clear
10:35 AM 46.4 °F 39.8 °F 33.8 °F 62% 30.02 in 10.0 mi SW 16.1 mph 31.1 mph N/A   Clear
10:55 AM 46.4 °F 39.8 °F 33.8 °F 62% 29.99 in 10.0 mi SW 16.1 mph 29.9 mph N/A   Clear
11:15 AM 46.4 °F 38.5 °F 33.8 °F 62% 30.00 in 10.0 mi SW 21.9 mph 34.5 mph N/A   Scattered Clouds
11:35 AM 46.4 °F 39.5 °F 33.8 °F 62% 29.97 in 10.0 mi WSW 17.3 mph 26.5 mph N/A   Clear
11:55 AM 46.4 °F 39.2 °F 33.8 °F 62% 29.96 in 10.0 mi SW 18.4 mph 25.3 mph N/A   Mostly Cloudy
12:15 PM 44.6 °F 36.6 °F 33.8 °F 66% 29.95 in 10.0 mi SSW 19.6 mph 26.5 mph N/A   Overcast
12:35 PM 46.4 °F 39.8 °F 33.8 °F 62% 29.95 in 10.0 mi WSW 16.1 mph 23.0 mph N/A   Mostly Cloudy
12:55 PM 46.4 °F 39.0 °F 33.8 °F 62% 29.95 in 10.0 mi WSW 19.6 mph - N/A   Mostly Cloudy
1:15 PM 46.4 °F 39.8 °F 33.8 °F 62% 29.93 in 10.0 mi SW 16.1 mph 20.7 mph N/A   Mostly Cloudy
1:35 PM 46.4 °F 39.2 °F 33.8 °F 62% 29.94 in 10.0 mi WSW 18.4 mph 25.3 mph N/A   Overcast
1:55 PM 46.4 °F 39.0 °F 33.8 °F 62% 29.93 in 10.0 mi SW 19.6 mph 27.6 mph N/A   Overcast
2:15 PM 44.6 °F 37.2 °F 33.8 °F 66% 29.95 in 10.0 mi SW 17.3 mph 26.5 mph N/A   Overcast
2:35 PM 42.8 °F 36.6 °F 35.6 °F 76% 29.92 in 10.0 mi SW 11.5 mph 15.0 mph N/A   Light Drizzle
2:55 PM 44.6 °F 38.1 °F 35.6 °F 71% 29.92 in 10.0 mi SW 13.8 mph - N/A Rain Light Rain
3:15 PM 42.8 °F 36.2 °F 37.4 °F 81% 29.92 in 10.0 mi SW 12.7 mph 17.3 mph N/A Rain Light Rain
3:35 PM 42.8 °F 37.5 °F 41.0 °F 93% 29.92 in 10.0 mi SW 9.2 mph - N/A Rain Light Rain
3:55 PM 42.8 °F 36.6 °F 41.0 °F 93% 29.92 in 10.0 mi SW 11.5 mph 16.1 mph 0.01 in Rain Light Rain
4:15 PM 42.8 °F 37.0 °F 42.8 °F 100% 29.91 in 10.0 mi SW 10.4 mph 17.3 mph N/A Rain Light Rain
4:35 PM 41.0 °F 36.4 °F 41.0 °F 100% 29.90 in 10.0 mi SW 6.9 mph - 0.01 in Rain Rain
4:55 PM 41.0 °F 37.1 °F 41.0 °F 100% 29.91 in 10.0 mi South 5.8 mph - 0.01 in Rain Rain
5:15 PM 41.0 °F 36.4 °F 41.0 °F 100% 29.89 in 10.0 mi SSE 6.9 mph - N/A Rain Light Rain
5:35 PM 42.8 °F 38.6 °F 42.8 °F 100% 29.88 in 10.0 mi SSE 6.9 mph - 0.01 in Rain Rain
5:55 PM 41.0 °F 34.7 °F 41.0 °F 100% 29.88 in 10.0 mi SSE 10.4 mph - 0.01 in Rain Rain
6:15 PM 41.0 °F 34.3 °F 41.0 °F 100% 29.87 in 10.0 mi SSE 11.5 mph - N/A   Drizzle
6:35 PM 41.0 °F 34.3 °F 41.0 °F 100% 29.85 in 10.0 mi SSE 11.5 mph - N/A   Overcast
6:55 PM 41.0 °F 33.9 °F 41.0 °F 100% 29.85 in 10.0 mi South 12.7 mph - N/A   Overcast
7:15 PM 41.0 °F 35.2 °F 41.0 °F 100% 29.85 in 10.0 mi South 9.2 mph - N/A   Overcast
7:35 PM 42.8 °F 38.0 °F 35.6 °F 76% 29.86 in 10.0 mi South 8.1 mph - N/A   Overcast
7:55 PM 41.0 °F 37.1 °F 35.6 °F 81% 29.86 in 10.0 mi South 5.8 mph - N/A   Overcast
8:15 PM 42.8 °F 38.0 °F 35.6 °F 76% 29.85 in 10.0 mi South 8.1 mph - N/A   Overcast
8:35 PM 42.8 °F 38.6 °F 33.8 °F 70% 29.85 in 10.0 mi South 6.9 mph - N/A   Light Drizzle
8:55 PM 42.8 °F 37.5 °F 35.6 °F 76% 29.85 in 10.0 mi South 9.2 mph - N/A   Overcast
9:15 PM 44.6 °F 38.8 °F 35.6 °F 71% 29.84 in 10.0 mi South 11.5 mph - N/A   Overcast
9:35 PM 42.8 °F 37.5 °F 35.6 °F 76% 29.85 in 10.0 mi SSW 9.2 mph - N/A   Light Drizzle
9:55 PM 42.8 °F 36.2 °F 35.6 °F 76% 29.84 in 10.0 mi SSW 12.7 mph 18.4 mph N/A   Overcast
10:15 PM 42.8 °F 37.0 °F 37.4 °F 81% 29.84 in 10.0 mi SSW 10.4 mph - N/A   Overcast
10:35 PM 42.8 °F 38.0 °F 37.4 °F 81% 29.84 in 10.0 mi SW 8.1 mph - N/A   Overcast
10:55 PM 41.0 °F 35.8 °F 41.0 °F 100% 29.84 in 10.0 mi SSW 8.1 mph - N/A Rain Light Rain
11:15 PM 41.0 °F 35.8 °F 41.0 °F 100% 29.84 in 10.0 mi SSW 8.1 mph - N/A   Light Drizzle
11:35 PM 41.0 °F 35.8 °F 41.0 °F 100% 29.84 in 10.0 mi SSW 8.1 mph - N/A   Light Drizzle
11:55 PM 41.0 °F 36.4 °F 41.0 °F 100% 29.83 in 10.0 mi SSW 6.9 mph - N/A   Overcast